sat.trackr.live / text

‹ back to catalog

STARLINK-34171

NORAD 64082 · 2025-107U

PAYLOAD ACTIVE UNKNOWN

§ Identity

Operator
Country
US
Launch date
2025-05-21
Launch site
AFETR
Launch vehicle
Mass (kg)
RCS (m²)

Purposes: comms

External: N2YO · Heavens-Above · Gunter

§ Orbital elements

Epoch: 2026-05-24T23:46:07.510944Z

Period
94.27 min
Inclination
42.9987°
Eccentricity
0.0000948
Mean motion
15.27592836 rev/d
Perigee alt
482.4 km
Apogee alt
483.7 km
Semi-major
6,861.1 km
B*
9.1288e-4
RAAN
130.2913°
Arg perigee
255.1586°
Mean anomaly
104.9161°
Rev number
5,779

§ Raw data

STARLINK-341711 64082U 25107U   26144.99036471  .00024953  00000+0  91288-3 0  99942 64082  42.9987 130.2913 0000948 255.1586 104.9161 15.27592836 57791

JSON: /api/v1/satellites/64082 · /tle

For live sub-satellite position, see the globe view (requires WebGL).

§ Visibility from observer

Set your observer location to see the next 7 days of passes ≥ 10°. The values pass through the URL so the page stays shareable.

No JS? Fill the form by hand. The geolocation button needs JavaScript.